Location: Unspecified
(0.0000°N, 0.0000°E)
Time: 07:01:15
(UTC+00:00)

Vanguard 1 - Pass Details

Date: 26 November 2019
Orbit: 652 x 3832 km, 34.3° (Epoch: 11 December)

Event Time Altitude Azimuth Distance (km) Brightness Sun altitude
Rises 19:40:40 0° 247° (WSW) 3,667 14.4 -26.3°
Reaches altitude 10° 19:44:58 10° 217° (SW) 3,197 13.4 -27.3°
Maximum altitude 19:48:16 13° 192° (SSW) 3,375 13.2 -28.0°
Drops below altitude 10° 19:52:18 10° 169° (S) 4,076 13.3 -29.0°
Sets 19:59:54 0° 144° (SE) 5,953 14.0 -30.7°
